Tracking 18840 objects as of 19-November-2017
HD Live streaming from Space Station
objects crossing your sky now

NIMBUS 2 DEB

Track NIMBUS 2 DEB now!
10-day predictions


NORAD ID: 37892
Int'l Code: 1966-040AX
Perigee: 1,083.5 km
Apogee: 1,157.4 km
Inclination: 100.5 °
Period: 107.6 minutes
Semi major axis: 7491 km
RCS: 0.0071 m2 (small)
Launch date: May 15, 1966
Source: United States (US)
Launch site: AIR FORCE WESTERN TEST RANGE (AFWTR)

Note: This is SATELLITE DEBRIS
aabbcc
Your satellite tracking list
Your tracking list is empty




NASA's NSSDC Master Catalog

Two Line Element Set (TLE):
1 37892U 66040AX  17323.22366990  .00000614  00000-0  12270-2 0  9993
2 37892 100.5016 109.4614 0049310  85.1699  38.7484 13.38908227941926
Source of the keplerian elements: AFSPC